Home   Weather   São Paulo   Past weeks
Flag for Brazil

Past Weather in São Paulo, São Paulo, Brazil — Yesterday and Last 2 Weeks

Now
75 °F

Sunny.


Feels Like: 77 °F
Forecast: 69 / 89 °F
Wind: 2 mph from Northeast

Location: Sao Paulo Airport

Current Time: Dec 16, 2018 at 8:32:28 am

Latest Report: Dec 16, 2018 at 8:00 am


Visibility: 10 mi

Pressure: 30.21 "Hg (27.67 "Hg at 765m altitude)

Humidity: 74%

Dew Point: 66 °F

Location of São PauloLocation

Past Weather in São Paulo — Graph

°F

São Paulo Temperature Yesterday

Maximum temperature yesterday: 91 °F (at 2:00 pm)
Minimum temperature yesterday: 73 °F (at 6:00 am)
Average temperature yesterday: 80 °F

High & Low Weather Summary for the Past Weeks

 TemperatureHumidityPressure
High91 °F (Dec 14, 4:00 pm)94% (Dec 2, 11:14 pm)30.27 "Hg (Dec 2, 11:14 pm)
Low55 °F (Dec 8, 7:00 am)28% (Dec 14, 4:00 pm)29.77 "Hg (Dec 1, 5:00 pm)
Average71 °F67%30.06 "Hg
* Reported Dec 1 7:00 am — Dec 16 7:00 am, São Paulo. Weather by CustomWeather, © 2018

Note: Actual official high and low records may vary slightly from our data, if they occured in-between our weather recording intervals... More about our weather records

Advertising

São Paulo Weather History for the Previous 24 Hours

Scroll right to see more
 ConditionsComfort  
Time TempWeatherWind HumidityBarometerVisibility
7:00 am
Sun, Dec 16
72 °FPassing clouds.3 mph83%30.18 "HgN/A
6:00 am72 °FPassing clouds.5 mph83%30.18 "HgN/A
5:29 am72 °FPassing clouds.3 mph83%30.18 "HgN/A
5:00 am72 °FMostly cloudy.7 mph83%30.15 "HgN/A
4:51 am72 °FPartly cloudy.8 mph83%30.15 "HgN/A
4:32 am72 °FPartly cloudy.7 mph83%30.15 "HgN/A
4:13 am72 °FPassing clouds.10 mph83%30.15 "HgN/A
4:00 am72 °FLow clouds.8 mph83%30.15 "HgN/A
3:46 am72 °FMostly cloudy.7 mph88%30.15 "Hg6 mi
3:19 am72 °FMostly cloudy.9 mph83%30.15 "HgN/A
3:01 am72 °FPassing clouds.10 mph83%30.15 "HgN/A
2:00 am75 °FClear.9 mph78%30.15 "Hg10 mi
1:00 am77 °FPassing clouds.3 mph65%30.15 "HgN/A
12:00 am77 °FClear.2 mph61%30.18 "Hg10 mi
11:01 pm
Sat, Dec 15
77 °FPassing clouds.3 mph65%30.18 "HgN/A
11:00 pm77 °FClear.5 mph65%30.18 "Hg10 mi
10:00 pm79 °FClear.7 mph61%30.15 "Hg10 mi
9:00 pm79 °FClear.6 mph65%30.12 "Hg10 mi
8:00 pm81 °FClear.6 mph66%30.09 "Hg10 mi
7:00 pm81 °FSunny.8 mph66%30.09 "Hg10 mi
6:00 pm81 °FScattered showers. Passing clouds.9 mph54%30.09 "HgN/A
5:00 pm79 °FScattered showers. Partly sunny.12 mph58%30.09 "HgN/A
4:00 pm84 °FThunderstorms. Partly sunny.14 mph51%30.09 "HgN/A
3:00 pm90 °FScattered clouds.14 mph36%30.12 "HgN/A
2:00 pm91 °FScattered clouds.13 mph34%30.12 "HgN/A
1:00 pm90 °FPartly sunny.8 mph36%30.15 "HgN/A
12:00 pm90 °FPassing clouds.12 mph33%30.18 "HgN/A
11:00 am86 °FSunny.9 mph40%30.18 "Hg10 mi
10:00 am82 °FSunny.9 mph48%30.18 "Hg10 mi
9:00 am81 °FSunny.9 mph54%30.18 "Hg10 mi
8:00 am77 °FSunny.3 mph61%30.18 "Hg10 mi
Weather by CustomWeather, © 2018

See weather overview